Regional Weather Roundup
Issued by NWS

Home | Current Version | Previous Version | Text Only | Print | Product List | Glossary Off
Versions: 1 2 3 4 5 6 7 8 9 10 11 12 13 14 15 16 17 18 19 20 21 22 23 24 25 26 27 28 29 30 31 32 33 34 35 36 37 38 39 40 41 42 43 44 45 46 47 48 49 50

000
ASUS43 KIND 041959
RWRIN

WEATHER ROUNDUP FOR INDIANA
NATIONAL WEATHER SERVICE INDIANAPOLIS IN
400 PM EDT TUE AUG 04 2015

NOTE: "FAIR" INDICATES FEW OR NO CLOUDS BELOW 12,000 FEET WITH NO
SIGNIFICANT WEATHER AND/OR OBSTRUCTIONS TO VISIBILITY.

* - STATION DOES NOT REPORT WEATHER SUCH AS PRECIPITATION OR FOG.

+ - STATION NOT QUALITY CONTROLLED BY THE NATIONAL WEATHER SERVICE.
    USE DATA WITH CAUTION...ESPECIALLY DEWPOINT AND RELATIVE
    HUMIDITY OBSERVATIONS.

INZ001>003-010>013-019-020-042100-
NORTHWEST INDIANA

CITY           SKY/WX    TMP DP  RH WIND       PRES   REMARKS
GARY /AIRPORT/ PTSUNNY   82  52  34 W8        29.98S

$$

LMZ046-743>745-042100-
SOUTHERN LAKE MICHIGAN

STATION/POSITION TIME  TEMP    WIND        PRES    WAVE
                       AIR SEA DIR/SP/G            HT
                 (UTC) (F)     (DEG/KT/KT) (MB)    (FT)
BURNS HARBOR     1900   76      20/  3/  4 1015.2S
MICHIGAN CITY    1915   79     320/  3/  4   N/A
5NW MICH CITY    1900   77 75   CALM  /  2   N/A     1

$$

INZ004-005-014>016-021>024-042100-
NORTH CENTRAL INDIANA

CITY           SKY/WX    TMP DP  RH WIND       PRES   REMARKS
ELKHART        SUNNY     79  50  36 W13       29.98S
GOSHEN         PTSUNNY   78  58  49 W9        29.97S
SOUTH BEND     PTSUNNY   79  51  37 NW10      29.99S

$$

INZ006>009-017-018-025>027-042100-
NORTHEAST INDIANA

CITY           SKY/WX    TMP DP  RH WIND       PRES   REMARKS
ANGOLA *+      MOSUNNY   79  57  47 NW9       29.97S
FORT WAYNE     PTSUNNY   80  57  45 W12       29.98S

$$

INZ028-029-035-036-043>045-051>053-042100-
WEST CENTRAL INDIANA

CITY           SKY/WX    TMP DP  RH WIND       PRES   REMARKS
CRAWFORDSVL +  PTSUNNY   78  53  42 W8        30.02
GREENCASTLE +  CLOUDY    77  54  44 W5        30.03R
LAFAYETTE      PTSUNNY   78  57  48 NW10      29.99S
TERRE HAUTE    CLOUDY    82  59  45 W6        30.01S

$$

INZ030>032-037>040-046>048-054>057-064-065-042100-
CENTRAL INDIANA

CITY           SKY/WX    TMP DP  RH WIND       PRES   REMARKS
ANDERSON       SUNNY     81  48  32 W12       30.01
GREENWOOD *+   PTSUNNY   81  50  34 W7        30.01R
INDIANAPOLIS   PTSUNNY   82  56  40 W12       30.00R
-EAGLE CREEK   PTSUNNY   81  58  45 VRB7      30.00R
KOKOMO *+      FAIR      81  59  47 NW16      29.99S
MT COMFORT *+  MOSUNNY   82  43  24 W8        30.01R
SHELBYVILLE    PTSUNNY   82  57  42 W7        29.99S

$$

INZ033-034-041-042-049-050-058-059-042100-
EAST CENTRAL INDIANA

CITY           SKY/WX    TMP DP  RH WIND       PRES   REMARKS
MUNCIE         MOSUNNY   78  57  48 W8        29.99S

$$

INZ060-061-067>069-081>083-085>088-042100-
SOUTHWEST INDIANA

CITY           SKY/WX    TMP DP  RH WIND       PRES   REMARKS
EVANSVILLE     PTSUNNY   92  72  51 N8        29.96F HX  99
HUNTINGBURG *+ MOSUNNY   88  72  58 NW7       29.98F

$$

INZ062-063-066-070>080-084-089>092-042100-
SOUTH CENTRAL AND SOUTHEAST INDIANA

CITY           SKY/WX    TMP DP  RH WIND       PRES   REMARKS
BLOOMINGTON    CLOUDY    81  65  58 NW5       30.01S
MADISON *+     PTSUNNY   82  61  47 W8        30.02F
SEYMOUR +      CLOUDY    86  64  48 W6        29.99F

$$



USA.gov is the U.S. government's official web portal to all federal, state and local government web resources and services.